796  
ASUS41 KOKX 250005  
RWROKX  
 
REGIONAL WEATHER ROUNDUP  
NATIONAL WEATHER SERVICE NEW YORK NY  
800 PM EDT FRI OCT 24 2014  
 
NOTE: "FAIR" INDICATES FEW OR NO CLOUDS BELOW 12,000 FEET WITH NO  
SIGNIFICANT WEATHER AND/OR S TO VISIBILITY
.  
 
NYZ071-072-176-178-NJZ106-104-250100-  
NEW YORK CITY METRO AREA  
 
 
CITY SKY/WX TMP DP RH WIND PRES REMARKS
 
CENTRAL PARK CLEAR 56 46 69 CALM 29.83R  
LAGUARDIA APRT PTCLDY 57 47 69 E3 29.80R  
KENNEDY INTL MOCLDY 54 45 71 E3 29.81R  
NEWARK/LIBERTY MOCLDY 60 46 59 CALM 29.81R  
BRNX BOT. GARD N/A 52 46 82 CALM 29.82S  
TETERBORO CLEAR 53 46 77 CALM 29.80R  

 
 
NYZ177-179-078>081-250100-  
LONG ISLAND NEW YORK  
 
CITY SKY/WX TMP DP RH WIND PRES REMARKS
 
FARMINGDALE CLOUDY 56 45 66 CALM 29.81R  
ISLIP MOCLDY 55 46 71 W5 29.78R  
SHIRLEY MOCLDY 54 45 71 NW6 29.79S  
WESTHAMPTON CLOUDY 55 45 68 N10 29.79S  
MONTAUK POINT N/A 54 43 66 NW16G23 29.77S  

 
 
NYZ052-065-067-250100-  
HUDSON VALLEY  
 
CITY SKY/WX TMP DP RH WIND PRES REMARKS
 
WHITE PLAINS PTCLDY 49 45 86 SW3 29.80R  
NEWBURGH CLEAR 50 46 87 CALM 29.82R  
MONTGOMERY PTCLDY 58 41 53 NW6 29.80R  
POUGHKEEPSIE PTCLDY 51 46 83 NW3 29.81R  
ALBANY CLOUDY 47 44 90 N6 29.86R  

 
 
NJZ001-105-106-008-010-013-015-019>022-104-250100-  
NEW JERSEY  
 
CITY SKY/WX TMP DP RH WIND PRES REMARKS
 
NEWARK/LIBERTY MOCLDY 60 46 59 CALM 29.81R  
TETERBORO CLEAR 53 46 77 CALM 29.80R  
CALDWELL CLEAR 61 39 44 NW7 29.81R  
MORRISTOWN CLEAR 63 41 45 N6 29.82R  
SOMERVILLE PTCLDY 61 40 45 NW6 29.81R  
SUSSEX CLEAR 60 40 47 CALM 29.83R  
ANDOVER N/A 58 40 51 CALM 29.84R  
TRENTON MOCLDY 63 40 42 NW8 29.83R  
MILLVILLE PTCLDY 56 42 59 W8 29.86R  
ATLANTIC CITY MOCLDY 58 47 66 W8 29.84R  
WRIGHTSTOWN PTCLDY 60 44 54 NW8 29.81R  
TOMS RIVER PTCLDY 55 46 71 CALM 29.83R  
BELMAR PTCLDY 57 46 67 CALM 29.82R  

 
 
PAZ047>061-062-071-250100-  
EASTERN PENNSYLVANIA  
 
CITY SKY/WX TMP DP RH WIND PRES REMARKS
 
PHILADELPHIA MOCLDY 62 41 46 W9 29.86R  
ALLENTOWN MOCLDY 60 41 49 NW7 29.85R  
SCRANTON PTCLDY 57 38 48 N9 29.88R  

 
 
CTZ002-004>006-009-010-012-RIZ004-006-007-MAZ004-011-015-250100-  
SOUTHERN NEW ENGLAND  
IN CT  
 
CITY SKY/WX TMP DP RH WIND PRES REMARKS
 
BRADLEY INTL MOCLDY 52 42 69 NW8 29.77S  
HARTFORD CLOUDY 53 42 66 VRB7 29.78S  
DANBURY PTCLDY 49 42 77 W3 29.80S  
WTRBRY/OXFORD PTCLDY 48 39 71 N5 29.79S  
BRIDGEPORT PTCLDY 54 45 71 NW3 29.79S  
MERIDEN CLEAR 48 43 82 CALM 29.78S  
NEW HAVEN PTCLDY 55 44 66 NW5 29.78S  
CHESTER MOCLDY 52 43 71 N9 29.78S  
GROTON MOCLDY 51 42 71 NW10 29.76R  
WILLIMANTIC CLOUDY 52 41 66 NW6 29.77R  
 
IN RI  
 
CITY SKY/WX TMP DP RH WIND PRES REMARKS
 
PROVIDENCE CLOUDY 52 42 69 NW9 29.75R  
BLOCK ISLAND CLOUDY 54 41 62 N13G18 29.75R  
WESTERLY CLOUDY 53 42 66 VRB6 29.76S  
 
IN MA  
 
CITY SKY/WX TMP DP RH WIND PRES REMARKS
 
BOSTON CLOUDY 50 43 77 NW8 29.73R  
WORCESTER CLOUDY 46 40 79 NW10 29.74S  
WESTFIELD MOCLDY 51 42 71 CALM 29.78R  
PROVINCETOWN CLOUDY 52 0 11 NW14G22 29.72R  
NANTUCKET CLOUDY 53 47 79 NW12 29.71S  

 
 
ANZ330-335-338-340-345-350-353-355-250100-  
COASTAL MARINE OBSERVATIONS  
 
 
STATION/POSITION TIME SKY/WX TEMP WIND PRES VSBY WAVE
 
AIR SEA DIR/SP/G HT/PER  
(UTC) (F) (DEG/KT/KT) (MB) (MI) (FT/S)  
NY HARB ENTRANCE NOT AVBL  
4S FIRE IS 0000 63 N/A 2/ 9  
20S FIRE ISLAND 0000 59 63 360/ 10/ 12 1009.1 2/ 9  
23SW MTP 0000 N/A 4/ 5  
HUDSON CANYON 0000 60 65 330/ 14/ 16 1009.1 5/ 5  
EXECUTION ROCKS 2300 58 62 50/ 2/ 4 N/A  
WESTERN LI SOUND 2300 58 20/ 6/ 8 N/A 0  
CENTRAL LI SOUND 2300 56 63 340/ 14/ 17 N/A 2/ 3  
EASTERN LI SOUND 2300 55 63 330/ 14/ 17 N/A  
ROBBINS REEF 0000 61 290/ 3/ 4 1008.0  

 
 
>>>>>>>>>>>>>>>>>>>>>>>>>>>> KEY <<<<<<<<<<<<<<<<<<<<<<<<<<<  
> <  
> SKY/WX - SKY CONDITION/PRESENT WEATHER <  
> TMP - TEMPERATURE IN FAHRENHEIT <  
> DP - DEWPOINT IN FAHRENHEIT <  
> RH - RELATIVE HUMIDITY IN PERCENT <  
> WIND - DIRECTION AND SPEED IN MPH <  
> PRES - MEAN SEA LEVEL PRESSURE IN INCHES OF HG <  
> WCI - WIND CHILL INDEX <  
> VSB - VISIBILITY IN MILES <  
> HX - HEAT INDEX <  
> TC - TEMPERATURE IN CELSIUS <  
> VRB - VARIABLE WIND DIRECTION <  
> <  
>>>>>>>>>>>>>>>>>>>>>>>>>>>> KEY <<<<<<<<<<<<<<<<<<<<<<<<<<<  
 
CLICK HERE TO GO TO PREVIOUS BULLETINS.

The Nexlab NY Page
The Nexlab NJ Page
The Nexlab CT Page Main Text Page